This is the latest recevied weather packets stored in our database for station/object OK1OBR-13. If no packets are shown the sender has not sent any weather packets the latest 1 day(s).
| Time | Temp. | Humidity | Pressure | Rain* | Wind** | Luminosity | Snow |
|---|---|---|---|---|---|---|---|
| 1777948922 | 13.33° C | 55% | 932.2 hPa | 0 mm | 0.89 m/s, 123° | - | - |
| 1777948861 | 13.33° C | 55% | 932.2 hPa | 0 mm | 1.34 m/s, 113° | - | - |
| 1777948801 | 13.33° C | 55% | 932.1 hPa | 0 mm | 0.89 m/s, 115° | - | - |
| 1777948741 | 13.33° C | 55% | 932.3 hPa | 0 mm | 0.89 m/s, 111° | - | - |
| 1777948681 | 13.33° C | 55% | 932.1 hPa | 0 mm | 0.89 m/s, 119° | - | - |
| 1777948621 | 13.33° C | 54% | 932.2 hPa | 0 mm | 1.34 m/s, 130° | - | - |
| 1777948561 | 13.33° C | 54% | 932.1 hPa | 0 mm | 0.89 m/s, 125° | - | - |
| 1777948501 | 13.33° C | 54% | 932.2 hPa | 0 mm | 0.89 m/s, 127° | - | - |
| 1777948442 | 13.33° C | 54% | 932.2 hPa | 0 mm | 0.89 m/s, 105° | - | - |
| 1777948381 | 13.89° C | 54% | 931.9 hPa | 0 mm | 0.89 m/s, 120° | - | - |
| 1777948321 | 13.89° C | 54% | 932.1 hPa | 0 mm | 0.89 m/s, 121° | - | - |
| 1777948261 | 13.89° C | 53% | 932.2 hPa | 0 mm | 0.89 m/s, 132° | - | - |
| 1777948201 | 13.89° C | 53% | 932.2 hPa | 0 mm | 0.89 m/s, 138° | - | - |
| 1777948141 | 13.33° C | 53% | 932.2 hPa | 0 mm | 0.89 m/s, 139° | - | - |
| 1777948082 | 13.33° C | 53% | 932.1 hPa | 0 mm | 0.89 m/s, 126° | - | - |
| 1777948021 | 13.33° C | 54% | 932.2 hPa | 0 mm | 0.89 m/s, 117° | - | - |
| 1777947961 | 13.33° C | 54% | 932.1 hPa | 0 mm | 0.89 m/s, 103° | - | - |
| 1777947901 | 13.33° C | 54% | 932.3 hPa | 0 mm | 0.89 m/s, 114° | - | - |
| 1777947841 | 13.33° C | 54% | 932.2 hPa | 0 mm | 0.89 m/s, 93° | - | - |
| 1777947781 | 13.33° C | 54% | 932.2 hPa | 0 mm | 0.89 m/s, 97° | - | - |
| 1777947721 | 13.33° C | 53% | 932.2 hPa | 0 mm | 0.89 m/s, 100° | - | - |
| 1777947661 | 13.33° C | 53% | 932.2 hPa | 0 mm | 0.89 m/s, 100° | - | - |
| 1777947600 | 13.33° C | 54% | 932.2 hPa | 0 mm | 0.45 m/s, 94° | - | - |
| 1777947541 | 13.33° C | 53% | 932.2 hPa | 0 mm | 0.89 m/s, 92° | - | - |
| 1777947481 | 13.33° C | 53% | 932.3 hPa | 0 mm | 0.89 m/s, 101° | - | - |
* Rain since midnight (hover to see other rain measurements)
** Current wind speed in m/s (hover to see current wind gust speed)